Regional Weather Roundup
Issued by NWS Sterling, VA

Home | Current Version | Previous Version | Text Only | Print | Product List | Glossary On
Versions: 1 2 3 4 5 6 7 8 9 10 11 12 13 14 15 16 17 18 19 20 21 22 23 24 25 26 27 28 29 30 31 32 33 34 35 36 37 38 39 40 41 42 43 44 45 46 47 48 49 50
000
ASUS41 KLWX 270410
RWRLWX

REGIONAL WEATHER ROUNDUP
NATIONAL WEATHER SERVICE BALTIMORE MD/WASHINGTON DC
1200 AM EDT FRI MAR 27 2015

Note: "FAIR" indicates few or no clouds below 12,000 feet
with no significant weather and/or obstructions to visibility.
 TC=TEMPERATURE CELSIUS

 * =Non NWS site. Station does not report precipitation (e.g. rain,
    snow, etc.), thunder, or fog.

DCZ001-MDZ009-015-VAZ040>042-051-053>054-270500-
WASHINGTON METRO

CITY           SKY/WX    TMP DP  RH WIND       PRES   REMARKS
WASHINGTON NAT CLOUDY    54  45  71 NW14      29.74R
DULLES         CLOUDY    50  41  71 NW15G24   29.76R
ANDREWS AFB    LGT RAIN  54  48  82 N16       29.72R
FT BELVOIR     CLOUDY    52  44  72 NW12G22   29.75R
QUANTICO       HVY RAIN  52  44  74 N17G26    29.77R
COLLEGE PARK*  CLOUDY    52  46  82 N14G22    29.74R
LEESBURG*      DRIZZLE   50  45  81 N12G17    29.78R
MANASSAS*      CLOUDY    52  45  76 N12G21    29.76R
GAITHERSBURG*  CLOUDY    48  39  71 N6        29.79R

$$

MDZ006>007-011-014-270500-
BALTIMORE METRO

CITY           SKY/WX    TMP DP  RH WIND       PRES   REMARKS
BWI AIRPORT    CLOUDY    50  43  77 NW8       29.74R
MARTIN STATE   CLOUDY    50  46  87 W10       29.75S
ANNAPOLIS      LGT RAIN  51  47  86 N13       29.73R

$$

MDZ012-015-019>023-270500-
MARYLAND EASTERN SHORE

CITY           SKY/WX    TMP DP  RH WIND       PRES   REMARKS
OCEAN CITY     CLOUDY    54  52  93 SW14      29.67S
SALISBURY      CLOUDY    61  58  90 W9        29.68R
BAY BRIDGE AP* LGT RAIN  46  46 100 NW7       29.74R
CAMBRIDGE*     CLOUDY    59  54  82 NW9       29.70R
EASTON*        RAIN      56  56  99 N12       29.76R

$$

MDZ017>025-270500-
SOUTHERN MARYLAND

CITY           SKY/WX    TMP DP  RH WIND       PRES   REMARKS
PATUXENT RIVER CLOUDY    57  53  86 NW16      29.70S
ST INIGOES     CLOUDY    62  55  77 N8        29.69R
LEONARDTOWN*   CLOUDY    54  52  94 NW9       29.73R

$$

MDZ003>005-270500-
NORTH CENTRAL MARYLAND

CITY           SKY/WX    TMP DP  RH WIND       PRES   REMARKS
FREDERICK*     LGT RAIN  50  39  66 N5        29.79R
HAGERSTOWN APT CLOUDY    47  39  74 NW9       29.78R
WESTMINSTER*   DRIZZLE   46  43  87 NW5       29.75R

$$

MDZ501>502-270500-
WESTERN MARYLAND

CITY           SKY/WX    TMP DP  RH WIND       PRES   REMARKS
OAKLAND*       FOG       34 N/A N/A W8        29.78S VSB 1/4 WCI  27
CUMBERLAND*    CLOUDY    46  36  66 N6        29.84F

$$

VAZ025>031-270500-
SHENANDOAH VALLEY

CITY           SKY/WX    TMP DP  RH WIND       PRES   REMARKS
WINCHESTER*    LGT RAIN  46  36  66 NW15      29.79R
FRONT ROYAL*   CLOUDY    46  41  81 NW5       29.78F
LURAY*         CLOUDY    52  43  71 N12       29.78R
NEW MARKET*    CLOUDY    48  40  72 N8        29.78R
STAUNTON*      CLOUDY    51  43  74 N17       29.76R
WAYNESBORO*    CLOUDY    53  50  91 N14G20    29.73R

$$

WVZ021-048>050-054>055-270500-
EASTERN WEST VIRGINIA PANHANDLE

CITY           SKY/WX    TMP DP  RH WIND       PRES   REMARKS
MARTINSBURG    LGT RAIN  49  37  63 NW10      29.80R
PETERSBURG*    CLOUDY    48  35  59 N5        29.81F

$$

VAZ036>039-050-270500-
CENTRAL FOOTHILLS

CITY           SKY/WX    TMP DP  RH WIND       PRES   REMARKS
CHARLOTTESVILL LGT RAIN  56  54  93 VRB3      29.71R
CULPEPER*      RAIN      52  45  76 N20G28    29.75R
ORANGE*        RAIN      52  48  87 N10       29.74R
GORDONSVILLE*  CLOUDY    53  50  92 NE10G22   29.71R
WARRENTON*     LGT RAIN  52  48  84 NW14G24   29.75R

$$

VAZ055>057-270500-
NORTH AND CENTRAL PIEDMONT

CITY           SKY/WX    TMP DP  RH WIND       PRES   REMARKS
FREDERICKSBRG* RAIN      54  52  95 N15G23    29.73R
STAFFORD*      RAIN      51  32  48 N13       29.79R

$$

NCZ024-NYZ072-PAZ021-071-VAZ022-071-270500-
OTHER REGIONAL OBSERVATIONS

CITY           SKY/WX    TMP DP  RH WIND       PRES   REMARKS
NEW YORK CITY  LGT RAIN  44  41  89 NE9       29.67F
PHILADELPHIA   RAIN      51  46  83 N16       29.70S FOG
PITTSBURGH     CLOUDY    37  34  89 NW9       29.87S
ROANOKE        CLOUDY    55  50  83 W7        29.76R
RICHMOND       CLOUDY    66  54  65 S9        29.67S
RALEIGH        CLOUDY    68  56  65 SW12      29.72S

$$

ANZ530>537-270500-
MARINE OBSERVATIONS

STATION/POSITION TIME  TEMP    WIND        PRES
                       AIR SEA DIR/SP/G
                 (UTC) (F)     (DEG/KT/KT) (MB)
THOMAS PT LIGHT  0400                        N/A
BALT KEY BRIDGE  0300   52     330/ 15/ 18 1006.2R
COVE POINT       0300   57      30/ 13/ 16 1004.9R
LEWISETTA        0300   65 50              1003.9F
SOLOMONS ISLAND  0300      44                N/A
PINEY POINT      0300          160/  2/  3   N/A

$$




USA.gov is the U.S. government's official web portal to all federal, state and local government web resources and services.